Flag for Brazil Weather past 2 weeks in Rio Branco, Acre, Brazil

Now
73 °F

Clear.


Feels Like: 72 °F
Forecast: 58 / 81 °F
Wind: 2 mph from Southwest

Location: Rio Branco Airport

Current Time: Jul 24, 2014 at 8:43:57 PM

Latest Report: Jul 24, 2014 at 8:00 PM


Visibility: 10 mi

Pressure: 29.92 "Hg

Humidity: 89%

Dew point: 70 °F

Location of Rio BrancoLocation

Historic Weather in Rio Branco — Graph

°F

Rio Branco temperature yesterday

Maximum temperature yesterday: 86 °F (at 12:00 PM)
Minimum temperature yesterday: 70 °F (at 1:00 AM)
Average temperature yesterday: 76 °F

Past Weeks' High & Low Weather Summary

 TemperatureHumidityPressure
High91 °F (Jul 16, 1:00 PM)100% (Jul 10, 5:00 AM)30.18 "Hg (Jul 10, 5:00 AM)
Low61 °F (Jul 11, 6:00 AM)41% (Jul 18, 2:00 PM)29.83 "Hg (Jul 23, 5:00 PM)
Average74 °F77%30.00 "Hg
* Reported Jul 9 7:00 PM — Jul 24 7:00 PM, Rio Branco, Weather by CustomWeather, © 2014

Note: Actual official high and low records may vary slightly from our data, if they occured in-between our weather recording intervals... More about our weather records

Advertising

Rio Branco weather history for previous 24 hours

 ConditionsComfort  
Time TempWeatherWind HumidityBarometerVisibility
7:00 PM
Jul 24
77 °FClear.No wind79%29.89 "Hg10 mi
6:00 PM79 °FSunny.5 mph74%29.89 "Hg10 mi
5:00 PM86 °FPassing clouds.2 mph55%29.86 "HgN/A
4:00 PM88 °FScattered clouds.5 mph49%29.83 "HgN/A
3:00 PM88 °FScattered clouds.8 mph52%29.83 "HgN/A
2:00 PM88 °FScattered clouds.6 mph49%29.89 "HgN/A
1:00 PM88 °FPartly sunny.12 mph52%29.92 "HgN/A
12:00 PM86 °FPartly sunny.3 mph55%29.98 "HgN/A
11:00 AM86 °FBroken clouds.3 mph55%30.01 "HgN/A
10:00 AM84 °FPartly sunny.7 mph58%30.01 "HgN/A
9:00 AM81 °FSunny.5 mph70%30.01 "Hg10 mi
8:00 AM77 °FSunny.5 mph79%30.01 "Hg10 mi
7:00 AM72 °FSunny.No wind83%29.98 "Hg10 mi
6:00 AM66 °FClear.No wind94%29.95 "Hg10 mi
5:00 AM68 °FClear.No wind94%29.92 "Hg10 mi
4:00 AM68 °FClear.No wind94%29.89 "Hg10 mi
3:00 AM68 °FClear.2 mph94%29.89 "Hg10 mi
2:00 AM70 °FClear.1 mph88%29.89 "Hg10 mi
1:00 AM70 °FClear.1 mph88%29.89 "Hg10 mi
12:00 AM70 °FClear.2 mph88%29.92 "Hg10 mi
11:00 PM
Jul 23
70 °FClear.3 mph88%29.92 "Hg10 mi
10:00 PM72 °FClear.5 mph83%29.92 "Hg10 mi
9:00 PM72 °FClear.3 mph88%29.92 "Hg10 mi
8:00 PM72 °FPassing clouds.2 mph94%29.89 "HgN/A
Weather by CustomWeather, © 2014

See weather overviewHow to use our weather pages